Location: Lake Almanor
(40.2485°N, 121.1442°W)
Time: 15:14:05
(UTC-08:00)

N. Korean satellite - Pass Details

Date: 26 January 2020
Orbit: 456 x 505 km, 97.2° (Epoch: 19 February)

Event Time Altitude Azimuth Distance (km) Brightness Sun altitude
Rises 06:43:40 0° 355° (N) 2,542 10.0 -7.1°
Reaches altitude 10° 06:46:06 10° 338° (NNW) 1,668 8.9 -6.7°
Maximum altitude 06:48:45 20° 290° (WNW) 1,186 7.9 -6.2°
Drops below altitude 10° 06:51:25 10° 243° (WSW) 1,679 8.9 -5.7°
Sets 06:53:53 0° 225° (SW) 2,565 10.0 -5.3°
